Location: Kunchanapalle
(16.4623°N, 80.6176°E)
Time: 13:04:18
(UTC+00:00)

Cosmos 1932 - Pass Details

Date: 13 August 2020
Orbit: 924 x 1006 km, 65.0° (Epoch: 25 September)

Event Time Altitude Azimuth Distance (km) Brightness Sun altitude
Rises 22:44:54 0° 330° (NNW) 3,674 7.5 -22.7°
Reaches altitude 10° 22:47:32 10° 326° (NW) 2,714 6.7 -22.1°
Maximum altitude 22:53:43 56° 249° (WSW) 1,122 4.4 -20.7°
Drops below altitude 10° 22:59:46 10° 172° (S) 2,653 6.6 -19.4°
Sets 23:02:19 0° 168° (SSE) 3,586 7.4 -18.8°
